This is the latest recevied weather packets stored in our database for station/object KO4DYK. If no packets are shown the sender has not sent any weather packets the latest 10 day(s).
| Time | Temp. | Humidity | Pressure | Rain* | Wind** | Luminosity | Snow |
|---|---|---|---|---|---|---|---|
| 1788572716 | 30° C | 76% | 1015.4 hPa | 0 mm | - | 0 W/m² | - |
| 1788572412 | 30° C | 75% | 1015.4 hPa | 0 mm | - | 0 W/m² | - |
| 1788572108 | 30° C | 73% | 1015.4 hPa | 0 mm | - | 0 W/m² | - |
| 1788571803 | 29.44° C | 74% | 1015.4 hPa | 0 mm | - | 0 W/m² | - |
| 1788571498 | 29.44° C | 77% | 1015.4 hPa | 0 mm | - | 0 W/m² | - |
| 1788571194 | 30° C | 77% | 1015.3 hPa | 0 mm | - | 0 W/m² | - |
| 1788570890 | 30° C | 74% | 1015.2 hPa | 0 mm | - | 0 W/m² | - |
| 1788570586 | 30° C | 74% | 1015.2 hPa | 0 mm | - | 0 W/m² | - |
| 1788570280 | 30° C | 73% | 1015.3 hPa | 0 mm | - | 0 W/m² | - |
| 1788569976 | 30° C | 73% | 1015.4 hPa | 0 mm | - | 0 W/m² | - |
| 1788569672 | 30° C | 75% | 1015.2 hPa | 0 mm | - | 0 W/m² | - |
| 1788569372 | 30° C | 75% | 1015.1 hPa | 0 mm | - | 0 W/m² | - |
| 1788569067 | 30.56° C | 73% | 1015.1 hPa | 0 mm | - | 0 W/m² | - |
| 1788568762 | 31.67° C | 71% | 1015 hPa | 0 mm | - | 0 W/m² | - |
| 1788568453 | 31.67° C | 69% | 1015 hPa | 0 mm | - | 0 W/m² | - |
| 1788568148 | 32.22° C | 68% | 1015.1 hPa | 0 mm | - | 0 W/m² | - |
| 1788567847 | 32.78° C | 66% | 1014.9 hPa | 0 mm | - | 1 W/m² | - |
| 1788567542 | 32.78° C | 66% | 1014.9 hPa | 0 mm | - | 2 W/m² | - |
| 1788567262 | 32.78° C | 64% | 1014.9 hPa | 0 mm | - | 3 W/m² | - |
| 1788566932 | 32.78° C | 63% | 1014.8 hPa | 0 mm | - | 7 W/m² | - |
| 1788566627 | 33.33° C | 62% | 1014.7 hPa | 0 mm | - | 10 W/m² | - |
| 1788566323 | 33.89° C | 62% | 1014.8 hPa | 0 mm | - | 13 W/m² | - |
| 1788566017 | 33.89° C | 61% | 1014.6 hPa | 0 mm | - | 17 W/m² | - |
| 1788565712 | 34.44° C | 59% | 1014.7 hPa | 0 mm | - | 21 W/m² | - |
| 1788565407 | 35° C | 58% | 1014.3 hPa | 0 mm | - | 24 W/m² | - |
* Rain latest hour (hover to see other rain measurements)
** Current wind speed in m/s (hover to see current wind gust speed)